Mount Sterling, KY

11:49 AM EST on December 11, 2019 (GMT -0500)
Mount Sterling-Montgomery County

Weather History for KIOB - November, 2019

Change the Weather History Date:

Monday, November 11, 2019

  Actual Average Record
Temperature  
Mean Temperature 47 °F -  
Max Temperature 62 °F 56 °F 69 °F (2014)
Min Temperature 32 °F 36 °F 21 °F (2018)
Degree Days  
Heating Degree Days 18    
Moisture  
Dew Point 38 °F    
Average Humidity 68    
Maximum Humidity 100    
Minimum Humidity 48    
Precipitation  
Precipitation 0.08 in - - ()
Sea Level Pressure  
Sea Level Pressure 30.03 in    
Wind  
Wind Speed 8 mph ()    
Max Wind Speed 16 mph    
Max Gust Speed 26 mph    
Visibility 8.7 miles    
Events Rain , Snow    
Averages and records for this station are not official NWS values.
T = Trace of Precipitation, MM = Missing Value Source: Averaged Metar Reports

Daily Weather History Graph

Daily Weather History Graph

Search for Another Location

Airport or City:

Astronomy

Nov. 11, 2019 Rise Set
Actual Time 7:12 AM EST 5:27 PM EST
Civil Twilight 6:44 AM EST 5:55 PM EST
Nautical Twilight 6:12 AM EST 6:26 PM EST
Astronomical Twilight 5:41 AM EST 6:57 PM EST
Moon 5:20 PM EST 6:04 AM EST
Length of Visible Light 11h 10m
Length of Day
10h 15m
Waxing Gibbous, 99% of the Moon is Illuminated
Nov 11
Waxing Gibbous
Nov 12
Full
Nov 19
Last Quarter
Nov 26
New
Dec 4
First Quarter

Hourly Weather History & Observations

Time (EST) Temp. Windchill Dew Point Humidity Pressure Visibility Wind Dir Wind Speed Gust Speed Precip Events Conditions
12:15 AM 50.0 °F - 35.6 °F 58% 30.07 in 10.0 mi SSW 4.6 mph - N/A   Clear
12:35 AM 48.2 °F - 35.6 °F 62% 30.07 in 10.0 mi SW 4.6 mph - N/A   Clear
12:55 AM 50.0 °F - 35.6 °F 58% 30.07 in 10.0 mi SW 5.8 mph - N/A   Clear
1:35 AM 50.0 °F - 35.6 °F 58% 30.07 in 10.0 mi SW 5.8 mph - N/A   Clear
1:55 AM 50.0 °F - 35.6 °F 58% 30.07 in 10.0 mi SW 4.6 mph - N/A   Clear
2:15 AM 50.0 °F - 35.6 °F 58% 30.07 in 10.0 mi SW 5.8 mph - N/A   Clear
2:35 AM 50.0 °F - 35.6 °F 58% 30.07 in 10.0 mi SW 5.8 mph - N/A   Clear
2:55 AM 48.2 °F - 35.6 °F 62% 30.07 in 10.0 mi SW 5.8 mph - N/A   Clear
3:35 AM 50.0 °F - 35.6 °F 58% 30.07 in 10.0 mi SW 8.1 mph - N/A   Mostly Cloudy
3:55 AM 50.0 °F - 35.6 °F 58% 30.07 in 10.0 mi SW 8.1 mph - N/A   Overcast
4:15 AM 50.0 °F - 35.6 °F 58% 30.07 in 10.0 mi SW 6.9 mph - N/A   Overcast
4:35 AM 50.0 °F - 35.6 °F 58% 30.07 in 10.0 mi SSW 5.8 mph - N/A   Overcast
4:55 AM 48.2 °F - 35.6 °F 62% 30.07 in 10.0 mi SW 5.8 mph - N/A   Overcast
5:15 AM 46.4 °F 42.9 °F 35.6 °F 66% 30.07 in 10.0 mi SSW 6.9 mph - N/A   Scattered Clouds
5:35 AM 46.4 °F 43.5 °F 35.6 °F 66% 30.08 in 10.0 mi SW 5.8 mph - N/A   Clear
5:55 AM 46.4 °F 44.3 °F 35.6 °F 66% 30.07 in 10.0 mi SW 4.6 mph - N/A   Clear
6:15 AM 46.4 °F 43.5 °F 35.6 °F 66% 30.07 in 10.0 mi SW 5.8 mph - N/A   Clear
6:35 AM 46.4 °F 42.9 °F 35.6 °F 66% 30.06 in 10.0 mi SW 6.9 mph - N/A   Clear
6:55 AM 44.6 °F 42.2 °F 35.6 °F 71% 30.06 in 10.0 mi SW 4.6 mph - N/A   Clear
7:15 AM 44.6 °F 40.7 °F 35.6 °F 71% 30.06 in 10.0 mi SSW 6.9 mph - N/A   Clear
7:35 AM 44.6 °F 41.4 °F 37.4 °F 76% 30.06 in 10.0 mi SW 5.8 mph - N/A   Clear
7:55 AM 44.6 °F 40.7 °F 37.4 °F 76% 30.07 in 10.0 mi SW 6.9 mph - N/A   Clear
8:15 AM 46.4 °F 42.9 °F 37.4 °F 71% 30.07 in 10.0 mi SW 6.9 mph - N/A   Clear
8:35 AM 50.0 °F - 39.2 °F 66% 30.07 in 10.0 mi SSW 8.1 mph - N/A   Clear
8:55 AM 50.0 °F - 39.2 °F 66% 30.07 in 10.0 mi SSW 8.1 mph - N/A   Clear
9:15 AM 51.8 °F - 39.2 °F 62% 30.07 in 10.0 mi SW 10.4 mph - N/A   Clear
9:35 AM 51.8 °F - 41.0 °F 67% 30.06 in 10.0 mi SW 8.1 mph - N/A   Clear
9:55 AM 51.8 °F - 41.0 °F 67% 30.06 in 10.0 mi SW 8.1 mph 17.3 mph N/A   Clear
10:15 AM 55.4 °F - 41.0 °F 58% 30.05 in 10.0 mi SW 10.4 mph 17.3 mph N/A   Clear
10:35 AM 55.4 °F - 41.0 °F 58% 30.04 in 10.0 mi SW 12.7 mph 16.1 mph N/A   Clear
10:55 AM 59.0 °F - 42.8 °F 55% 30.03 in 10.0 mi SW 11.5 mph 17.3 mph N/A   Clear
11:15 AM 60.8 °F - 42.8 °F 52% 30.03 in 10.0 mi SW 9.2 mph - N/A   Clear
11:35 AM 60.8 °F - 42.8 °F 52% 30.02 in 10.0 mi SW 11.5 mph - N/A   Clear
11:55 AM 60.8 °F - 41.0 °F 48% 30.01 in 10.0 mi SW 9.2 mph 19.6 mph N/A   Clear
12:35 PM 62.6 °F - 42.8 °F 48% 29.98 in 10.0 mi WSW 12.7 mph 19.6 mph N/A   Scattered Clouds
1:15 PM 62.6 °F - 42.8 °F 48% 29.96 in 10.0 mi WSW 15.0 mph 25.3 mph N/A   Mostly Cloudy
1:35 PM 60.8 °F - 42.8 °F 52% 29.96 in 10.0 mi SW 10.4 mph 24.2 mph N/A   Scattered Clouds
1:55 PM 60.8 °F - 42.8 °F 52% 29.95 in 10.0 mi SW 11.5 mph 18.4 mph N/A   Mostly Cloudy
2:35 PM 62.6 °F - 42.8 °F 48% 29.95 in 10.0 mi WSW 11.5 mph 20.7 mph N/A   Mostly Cloudy
2:55 PM 62.6 °F - 42.8 °F 48% 29.94 in 10.0 mi WSW 12.7 mph 24.2 mph N/A   Mostly Cloudy
3:15 PM 62.6 °F - 42.8 °F 48% 29.93 in 10.0 mi WSW 8.1 mph 18.4 mph N/A   Overcast
3:35 PM 60.8 °F - 42.8 °F 52% 29.93 in 10.0 mi WSW 12.7 mph 19.6 mph N/A   Overcast
3:55 PM 60.8 °F - 42.8 °F 52% 29.93 in 10.0 mi WSW 11.5 mph 19.6 mph N/A   Overcast
4:15 PM 60.8 °F - 42.8 °F 52% 29.93 in 10.0 mi WSW 16.1 mph 25.3 mph N/A   Overcast
4:35 PM 60.8 °F - 42.8 °F 52% 29.93 in 10.0 mi WSW 12.7 mph 17.3 mph N/A   Overcast
4:55 PM 60.8 °F - 42.8 °F 52% 29.93 in 10.0 mi WSW 11.5 mph 17.3 mph N/A   Overcast
5:15 PM 59.0 °F - 42.8 °F 55% 29.92 in 10.0 mi WSW 9.2 mph - N/A   Overcast
5:35 PM 59.0 °F - 42.8 °F 55% 29.92 in 10.0 mi West 16.1 mph 21.9 mph N/A   Overcast
5:55 PM 59.0 °F - 44.6 °F 59% 29.94 in 10.0 mi West 15.0 mph 26.5 mph N/A Rain Light Rain
6:15 PM 51.8 °F - 46.4 °F 82% 29.96 in 10.0 mi WNW 11.5 mph 20.7 mph 0.01 in Rain Light Rain
6:55 PM 44.6 °F 38.8 °F 44.6 °F 100% 29.99 in 7.0 mi NW 11.5 mph 21.9 mph 0.03 in   Drizzle
7:15 PM 41.0 °F 34.7 °F 39.2 °F 93% 30.00 in 10.0 mi NNW 10.4 mph 21.9 mph N/A   Light Drizzle
7:35 PM 39.2 °F 31.6 °F 37.4 °F 93% 30.01 in 10.0 mi NNW 12.7 mph 19.6 mph N/A   Overcast
7:55 PM 37.4 °F 30.3 °F 35.6 °F 93% 30.03 in 5.0 mi NNW 10.4 mph 16.1 mph N/A Rain Light Rain
8:15 PM 35.6 °F 26.2 °F 33.8 °F 93% 30.04 in 4.0 mi NNW 15.0 mph 20.7 mph 0.01 in   Heavy Drizzle
8:35 PM 35.6 °F 27.5 °F 33.8 °F 93% 30.06 in 3.0 mi NNW 11.5 mph 19.6 mph 0.02 in Rain Heavy Rain
8:55 PM 33.8 °F 24.3 °F 33.8 °F 100% 30.06 in 7.0 mi North 13.8 mph 17.3 mph 0.02 in Snow Light Snow
9:15 PM 33.8 °F 26.4 °F 32.0 °F 93% 30.08 in 4.0 mi North 9.2 mph 16.1 mph 0.01 in Rain Light Rain
9:35 PM 32.0 °F 23.6 °F 32.0 °F 100% 30.09 in 5.0 mi North 10.4 mph 17.3 mph 0.02 in Snow Light Snow
9:55 PM 32.0 °F 24.2 °F 32.0 °F 100% 30.10 in 3.0 mi NNW 9.2 mph - 0.03 in Snow Light Snow
10:35 PM 32.0 °F 23.0 °F 32.0 °F 100% 30.11 in 1.2 mi NNW 11.5 mph 16.1 mph N/A Snow Snow
10:55 PM 32.0 °F 22.5 °F 32.0 °F 100% 30.12 in 1.2 mi NNW 12.7 mph 18.4 mph N/A Snow Light Snow
11:15 PM 32.0 °F 24.8 °F 32.0 °F 100% 30.12 in 1.2 mi NNW 8.1 mph 17.3 mph N/A Snow Light Snow
11:35 PM 32.0 °F 24.8 °F 32.0 °F 100% 30.13 in 1.8 mi NNW 8.1 mph 18.4 mph N/A Snow Light Snow
11:55 PM 32.0 °F 22.1 °F 30.2 °F 93% 30.14 in 1.5 mi NNW 13.8 mph 18.4 mph N/A Snow Light Snow